1497337200.38,11551,18.75,73704.3,8.45,-27.51,-28.91,0,*76
1497337201.61,11552,18.75,73700.8,8.45,-26.17,-27.67,0,*70
1497337202.86,11553,18.69,73698.3,8.47,-24.93,-26.33,0,*7D
1497337204.07,11554,18.75,73704.0,8.47,-24.93,-26.23,0,*7B
1497337205.33,11555,18.75,73708.0,8.51,-24.57,-25.71,0,*71
1497337206.61,11556,18.75,73714.0,8.51,-24.41,-25.45,0,*72
1497337207.88,11557,18.75,73716.8,8.55,-24.25,-25.49,0,*79
1497337209.13,11558,18.75,73716.8,8.59,-26.33,-27.77,0,*70
1497337210.38,11559,18.75,73722.8,8.59,-27.35,-28.97,0,*77
1497337211.58,11560,18.75,73726.0,8.57,-29.95,-31.33,0,*71
1497337212.79,11561,18.75,73724.8,8.53,-29.67,-31.33,0,*79
1497337214.05,11562,18.75,73728.3,8.49,-32.85,-34.65,0,*71
1497337215.28,11563,18.69,73716.8,8.45,-31.17,-32.63,0,*74
1497337216.48,11564,18.75,73714.8,8.45,-27.07,-28.37,0,*7F
1497337217.76,11565,18.75,73706.0,8.47,-25.81,-27.23,0,*7A
1497337219.03,11566,18.69,73696.8,8.47,-26.03,-27.35,0,*77
1497337220.28,11567,18.75,73700.0,8.47,-26.17,-27.55,0,*75
1497337221.5,11568,18.75,73698.0,8.49,-27.93,-29.39,0,*7D
1497337222.75,11569,18.75,73700.5,8.49,-28.47,-29.89,0,*71
1497337224.02,11570,18.75,73692.8,8.47,-29.57,-31.11,0,*7F
1497337225.29,11571,18.75,73686.0,8.47,-27.23,-28.75,0,*79
1497337226.55,11572,18.75,73684.8,8.47,-26.33,-27.55,0,*77
1497337227.81,11573,18.75,73680.3,8.47,-26.03,-27.39,0,*7F
1497337229.06,11574,18.69,73680.8,8.47,-26.17,-27.51,0,*73
1497337230.31,11575,18.75,73688.3,8.51,-25.45,-26.87,0,*7B
1497337231.53,11576,18.75,73694.8,8.51,-24.61,-25.87,0,*7C
1497337232.76,11577,18.75,73698.3,8.55,-25.65,-27.07,0,*76
1497337234.0,11578,18.75,73706.0,8.55,-27.19,-28.69,0,*77
1497337235.22,11579,18.75,73714.0,8.55,-28.69,-30.11,0,*78
1497337236.45,11580,18.75,73720.3,8.53,-28.75,-30.11,0,*75
1497337237.68,11581,18.75,73724.0,8.53,-27.55,-28.91,0,*78
1497337238.93,11582,18.75,73730.5,8.53,-27.45,-28.79,0,*7C
1497337240.18,11583,18.75,73734.8,8.53,-26.71,-28.05,0,*70
1497337241.39,11584,18.75,73736.0,8.53,-26.07,-27.29,0,*77
1497337242.61,11585,18.69,73732.0,8.55,-27.67,-29.23,0,*73
1497337243.84,11586,18.75,73736.8,8.53,-27.93,-29.29,0,*77
1497337245.09,11587,18.75,73736.0,8.53,-27.45,-28.79,0,*79
1497337246.34,11588,18.75,73734.3,8.51,-27.07,-28.47,0,*7F
1497337247.56,11589,18.75,73732.0,8.53,-27.71,-29.17,0,*79
1497337248.79,11590,18.75,73734.8,8.53,-27.55,-28.91,0,*78
1497337250.02,11591,18.75,73738.0,8.53,-27.61,-28.97,0,*78
1497337251.28,11592,18.75,73732.3,8.53,-28.75,-30.17,0,*70
1497337252.52,11593,18.75,73732.8,8.49,-29.67,-31.11,0,*7F
1497337253.78,11594,18.75,73732.0,8.49,-29.01,-30.61,0,*7E
1497337255.0,11595,18.75,73732.0,8.47,-26.87,-28.37,0,*7A
1497337256.25,11596,18.75,73732.0,8.49,-27.83,-29.35,0,*71
1497337257.48,11597,18.75,73728.5,8.49,-28.69,-30.05,0,*70
1497337258.74,11598,18.69,73728.8,8.49,-28.63,-29.89,0,*79
1497337259.96,11599,18.75,73726.3,8.45,-28.59,-29.79,0,*72
1497337261.19,11600,18.75,73712.8,8.45,-31.01,-32.75,0,*72
1497337262.46,11601,18.75,73718.5,8.41,-28.09,-28.79,0,*70
1497337263.72,11602,18.75,73716.0,8.41,-26.49,-28.25,0,*70
1497337264.96,11603,18.75,73722.8,8.41,-30.05,-31.67,0,*70
1497337266.22,11604,18.75,73728.0,8.39,-29.17,-30.73,0,*77
1497337267.44,11605,18.75,73728.0,8.39,-28.79,-30.23,0,*7A
1497337268.64,11606,18.75,73720.8,8.35,-29.57,-31.01,0,*79
1497337269.89,11607,18.75,73724.0,8.35,-28.91,-30.05,0,*76
1497337271.12,11608,18.75,73716.8,8.35,-29.07,-30.51,0,*76
1497337272.37,11609,18.75,73706.5,8.33,-29.07,-30.55,0,*75
1497337273.63,11610,18.75,73704.5,8.33,-30.01,-31.73,0,*76
1497337274.85,11611,18.75,73702.3,8.31,-30.55,-32.23,0,*72
1497337276.06,11612,18.75,73710.3,8.27,-32.19,-33.95,0,*70
1497337277.31,11613,18.75,73712.8,8.23,-32.07,-33.73,0,*72
1497337278.54,11614,18.75,73716.8,8.21,-30.83,-32.39,0,*76
1497337279.81,11615,18.75,73724.0,8.17,-30.73,-32.29,0,*7C
1497337281.06,11616,18.75,73730.5,8.17,-33.95,-35.65,0,*7B
1497337282.28,11617,18.75,73720.5,8.11,-34.25,-36.07,0,*77
1497337283.52,11618,18.75,73718.0,8.07,-32.63,-34.25,0,*79
1497337284.78,11619,18.75,73714.5,8.03,-30.95,-32.51,0,*72
1497337286.01,11620,18.75,73714.8,8.01,-29.61,-31.39,0,*74
1497337287.26,11621,18.75,73712.8,8.03,-28.69,-30.05,0,*70
1497337288.52,11622,18.75,73724.3,8.03,-26.81,-28.15,0,*73
1497337289.77,11623,18.75,73724.0,8.05,-26.71,-28.21,0,*7C
1497337291.04,11624,18.75,73734.0,8.07,-27.83,-29.35,0,*71
1497337292.27,11625,18.75,73736.0,8.09,-28.91,-30.33,0,*7C
1497337293.51,11626,18.75,73736.0,8.09,-29.57,-30.89,0,*75
1497337294.79,11627,18.75,73732.3,8.07,-28.79,-30.17,0,*70
1497337296.0,11628,18.75,73730.5,8.09,-28.37,-29.83,0,*7E
1497337297.25,11629,18.75,73720.5,8.07,-29.29,-30.83,0,*77
1497337298.5,11630,18.75,73712.0,8.09,-29.29,-30.51,0,*7E
1497337299.7,11631,18.75,73710.3,8.09,-26.61,-27.71,0,*78
1497337300.94,11632,18.75,73708.0,8.09,-26.03,-27.39,0,*73
1497337302.15,11633,18.75,73712.0,8.11,-26.23,-27.55,0,*73
1497337303.37,11634,18.75,73714.8,8.15,-26.45,-27.83,0,*7B
1497337304.63,11635,18.75,73718.8,8.17,-26.77,-28.15,0,*79
1497337305.91,11636,18.75,73718.5,8.21,-28.05,-29.51,0,*75
1497337307.17,11637,18.75,73714.3,8.19,-27.99,-29.51,0,*75
1497337308.39,11638,18.75,73710.3,8.19,-28.09,-29.61,0,*7F
1497337309.61,11639,18.75,73708.3,8.19,-27.67,-29.13,0,*7C
1497337310.83,11640,18.75,73704.3,8.19,-29.83,-31.45,0,*7C
1497337312.1,11641,18.75,73702.8,8.17,-30.55,-32.45,0,*73
1497337313.29,11642,18.75,73710.5,8.15,-31.01,-32.69,0,*7C
1497337314.54,11643,18.75,73710.0,8.11,-30.89,-32.57,0,*75
1497337315.78,11644,18.75,73712.5,8.11,-31.05,-32.79,0,*7B
1497337317.03,11645,18.75,73708.8,8.09,-30.61,-32.29,0,*75
1497337318.27,11646,18.75,73714.3,8.07,-30.55,-32.35,0,*72
1497337319.51,11647,18.75,73700.3,8.03,-30.61,-32.35,0,*70
1497337320.77,11648,18.75,73700.5,8.03,-30.89,-32.51,0,*7B
1497337321.98,11649,18.75,73706.5,8.01,-30.67,-32.39,0,*76
1497337323.23,11650,18.75,73704.5,7.99,-30.33,-31.95,0,*74
1497337324.48,11651,18.75,73692.3,7.99,-29.83,-31.39,0,*70
1497337325.73,11652,18.75,73702.8,7.99,-30.73,-32.35,0,*7B
1497337326.96,11653,18.75,73700.8,7.95,-31.45,-33.21,0,*76
1497337328.21,11654,18.75,73706.3,7.95,-32.57,-34.19,0,*7D
1497337329.46,11655,18.75,73710.0,7.89,-35.53,-37.63,0,*7C
1497337330.67,11656,18.75,73718.5,7.85,-34.25,-35.89,0,*75
1497337331.93,11657,18.75,73718.3,7.81,-31.51,-33.09,0,*78
1497337333.18,11658,18.75,73720.8,7.81,-30.55,-32.19,0,*72
1497337334.4,11659,18.75,73730.5,7.79,-31.67,-33.31,0,*7F
1497337335.65,11660,18.75,73728.3,7.77,-31.05,-32.79,0,*72
1497337336.88,11661,18.75,73726.0,7.77,-29.67,-31.17,0,*75
1497337338.13,11662,18.75,73718.3,7.77,-28.47,-29.95,0,*76
1497337339.41,11663,18.75,73710.5,7.77,-27.61,-28.91,0,*79
1497337340.62,11664,18.75,73712.0,7.81,-27.13,-28.53,0,*7C
1497337341.9,11665,18.75,73722.5,7.83,-28.05,-29.51,0,*74
1497337343.1,11666,18.75,73726.8,7.81,-27.93,-29.23,0,*70
1497337344.33,11667,18.75,73730.5,7.85,-26.93,-28.31,0,*76
1497337345.54,11668,18.75,73730.5,7.85,-26.45,-27.77,0,*7F
1497337346.79,11669,18.75,73734.5,7.87,-27.89,-29.35,0,*75
1497337348.04,11670,18.75,73738.5,7.93,-28.75,-29.73,0,*76
1497337349.25,11671,18.75,73732.5,7.93,-27.67,-29.07,0,*78
1497337350.51,11672,18.75,73724.8,7.93,-29.35,-30.61,0,*7A
1497337351.75,11673,18.75,73728.5,7.93,-28.05,-29.57,0,*74
1497337353.0,11674,18.75,73720.3,7.93,-27.99,-29.35,0,*7D
1497337354.21,11675,18.75,73714.5,7.89,-30.11,-31.67,0,*7F
1497337355.45,11676,18.75,73710.3,7.95,-30.39,-31.79,0,*74
1497337356.68,11677,18.75,73712.5,7.93,-29.07,-30.39,0,*73
1497337357.91,11678,18.75,73710.0,7.89,-29.13,-30.83,0,*73
1497337359.13,11679,18.75,73710.8,7.89,-29.45,-30.83,0,*71
1497337360.36,11680,18.75,73706.0,7.89,-29.73,-31.17,0,*7E
1497337361.62,11681,18.75,73700.5,7.87,-31.61,-33.55,0,*7F
1497337362.87,11682,18.75,73704.5,7.87,-32.29,-34.13,0,*76
1497337364.13,11683,18.75,73708.3,7.81,-31.23,-32.75,0,*7E
1497337365.39,11684,18.75,73710.3,7.81,-29.73,-31.11,0,*74
1497337366.66,11685,18.75,73728.5,7.77,-30.73,-32.29,0,*7C
1497337367.91,11686,18.75,73718.5,7.77,-30.33,-31.91,0,*7B
1497337369.19,11687,18.75,73714.8,7.77,-29.13,-30.51,0,*7D
1497337370.42,11688,18.75,73718.0,7.79,-29.17,-30.67,0,*7D
1497337371.65,11689,18.75,73720.0,7.77,-30.67,-32.39,0,*74
1497337372.9,11690,18.75,73714.0,7.77,-32.23,-33.77,0,*75
1497337374.12,11691,18.75,73706.3,7.75,-30.11,-31.39,0,*7D
1497337375.4,11692,18.75,73714.8,7.73,-29.89,-31.39,0,*71
1497337376.66,11693,18.75,73712.0,7.77,-29.67,-31.23,0,*7F
1497337377.91,11694,18.75,73710.0,7.73,-29.89,-31.29,0,*76
1497337379.14,11695,18.75,73706.8,7.73,-28.97,-30.45,0,*72
1497337380.41,11696,18.75,73698.3,7.73,-30.17,-31.85,0,*7D
1497337381.65,11697,18.75,73694.8,7.73,-30.05,-31.67,0,*73
1497337382.89,11698,18.75,73694.5,7.73,-28.31,-29.73,0,*7E
1497337384.16,11699,18.75,73696.5,7.73,-29.01,-30.39,0,*7B
1497337385.39,11700,18.75,73694.8,7.75,-28.05,-29.45,0,*7A
1497337386.61,11701,18.75,73698.3,7.75,-28.43,-29.95,0,*74
1497337387.85,11702,18.75,73694.8,7.73,-28.69,-30.05,0,*78
1497337389.07,11703,18.75,73692.0,7.75,-28.43,-29.83,0,*71
1497337390.31,11704,18.75,73700.3,7.75,-27.39,-28.79,0,*70
1497337391.54,11705,18.75,73700.8,7.77,-29.83,-31.33,0,*7A
1497337392.8,11706,18.75,73704.3,7.77,-32.85,-34.77,0,*70
1497337394.04,11707,18.75,73702.8,7.73,-32.45,-34.13,0,*7B
1497337395.28,11708,18.75,73702.3,7.67,-34.19,-35.89,0,*7C
1497337396.54,11709,18.75,73706.0,7.63,-34.31,-35.95,0,*7E
1497337397.75,11710,18.75,73704.8,7.59,-30.55,-32.13,0,*70
1497337398.98,11711,18.75,73704.5,7.59,-30.33,-31.61,0,*77
1497337400.2,11712,18.75,73702.5,7.59,-27.51,-29.17,0,*7E
1497337401.45,11713,18.75,73704.0,7.61,-25.65,-26.97,0,*76
1497337402.71,11714,18.75,73708.5,7.65,-26.03,-27.23,0,*78
1497337403.93,11715,18.75,73704.3,7.67,-28.15,-29.73,0,*79
1497337405.14,11716,18.75,73700.3,7.67,-30.11,-31.57,0,*78
1497337406.36,11717,18.75,73704.8,7.67,-30.27,-31.73,0,*7A
1497337407.59,11718,18.75,73704.0,7.65,-30.67,-32.23,0,*75
1497337408.85,11719,18.75,73706.0,7.63,-29.51,-30.55,0,*7C
1497337410.12,11720,18.75,73712.5,7.65,-27.39,-28.63,0,*7C
1497337411.37,11721,18.75,73712.5,7.65,-29.23,-30.55,0,*74
1497337412.63,11722,18.75,73714.0,7.65,-29.51,-31.01,0,*72
1497337413.83,11723,18.75,73708.3,7.63,-29.67,-31.05,0,*74
1497337415.09,11724,18.75,73710.8,7.65,-28.63,-30.33,0,*74
1497337416.33,11725,18.75,73708.5,7.65,-31.01,-32.45,0,*7A
1497337417.56,11726,18.75,73702.3,7.63,-30.33,-31.95,0,*71
1497337418.81,11727,18.75,73700.3,7.65,-28.91,-30.27,0,*7F
1497337420.04,11728,18.75,73698.5,7.65,-26.61,-27.93,0,*78
1497337421.26,11729,18.75,73698.8,7.71,-26.17,-27.51,0,*73
1497337422.53,11730,18.75,73694.5,7.73,-25.03,-26.29,0,*71
1497337423.76,11731,18.75,73694.3,7.75,-24.61,-25.71,0,*7D
1497337425.0,11732,18.75,73692.8,7.79,-24.35,-25.55,0,*75
1497337426.22,11733,18.75,73698.5,7.83,-23.89,-24.97,0,*7E
1497337427.48,11734,18.75,73698.3,7.87,-24.57,-25.71,0,*70
1497337428.72,11735,18.75,73700.3,7.93,-24.87,-26.03,0,*7F
1497337429.97,11736,18.75,73706.0,7.95,-25.19,-26.33,0,*7F
1497337431.21,11737,18.75,73708.8,7.97,-25.45,-26.71,0,*73
1497337432.43,11738,18.75,73710.3,8.01,-25.35,-26.55,0,*7D
1497337433.67,11739,18.75,73716.0,8.01,-26.03,-27.39,0,*71
1497337434.91,11740,18.75,73716.8,8.03,-25.45,-26.61,0,*70
1497337436.14,11741,18.75,73716.3,8.05,-25.55,-26.87,0,*7E
1497337437.34,11742,18.75,73720.5,8.09,-25.61,-27.03,0,*7B
1497337438.55,11743,18.75,73718.8,8.09,-28.53,-29.83,0,*70
1497337439.77,11744,18.75,73718.3,8.09,-27.93,-29.29,0,*74
1497337441.02,11745,18.75,73714.0,8.07,-28.09,-29.67,0,*7D
1497337442.24,11746,18.75,73700.0,8.07,-28.85,-30.33,0,*73
1497337443.49,11747,18.75,73702.5,8.07,-27.93,-29.35,0,*74
1497337444.78,11748,18.75,73700.3,8.07,-29.51,-30.89,0,*74
1497337445.98,11749,18.75,73704.0,8.05,-28.69,-30.23,0,*7D
1497337447.24,11750,18.75,73692.0,8.03,-29.39,-31.01,0,*76
1497337448.48,11751,18.75,73684.8,8.03,-29.83,-31.45,0,*76
1497337449.76,11752,18.75,73684.3,7.99,-31.23,-32.85,0,*75
1497337451.0,11753,18.75,73684.0,7.99,-31.01,-32.63,0,*7C
1497337452.28,11754,18.75,73684.0,7.95,-30.05,-31.61,0,*73
1497337453.53,11755,18.75,73678.5,7.95,-30.73,-32.39,0,*7D
1497337454.79,11756,18.75,73670.0,7.89,-30.61,-32.07,0,*7D
1497337456.02,11757,18.75,73680.0,7.89,-29.45,-30.95,0,*7B
1497337457.29,11758,18.75,73680.8,7.89,-28.91,-30.17,0,*76
1497337458.49,11759,18.75,73682.5,7.89,-28.85,-30.27,0,*71
1497337459.75,11760,18.75,73674.0,7.87,-28.79,-30.23,0,*72
1497337461.04,11761,18.75,73684.8,7.87,-29.13,-30.73,0,*7B
1497337462.29,11762,18.75,73688.3,7.87,-29.83,-31.57,0,*76
1497337463.51,11763,18.75,73682.5,7.85,-29.67,-31.17,0,*7B
1497337464.74,11764,18.75,73686.3,7.85,-29.83,-31.57,0,*72
1497337465.99,11765,18.75,73684.3,7.85,-28.75,-30.01,0,*79
1497337467.21,11766,18.75,73686.5,7.85,-27.89,-29.29,0,*74
1497337468.45,11767,18.75,73690.3,7.85,-28.75,-30.33,0,*7A
1497337469.68,11768,18.75,73690.3,7.85,-30.11,-31.61,0,*78
1497337470.9,11769,18.75,73692.5,7.81,-30.45,-31.95,0,*77
1497337472.16,11770,18.75,73706.0,7.81,-30.73,-32.45,0,*74
1497337473.41,11771,18.75,73708.8,7.81,-30.61,-32.19,0,*7F
1497337474.67,11772,18.75,73700.0,7.77,-30.67,-32.07,0,*7C
1497337475.87,11773,18.75,73700.0,7.75,-29.79,-31.17,0,*7A
1497337477.07,11774,18.75,73696.8,7.75,-30.67,-32.23,0,*7E
1497337478.31,11775,18.75,73692.3,7.75,-30.55,-32.07,0,*78
1497337479.6,11776,18.75,73686.8,7.73,-29.39,-30.89,0,*7B
1497337480.82,11777,18.75,73688.5,7.75,-27.29,-28.79,0,*75
1497337482.07,11778,18.75,73692.3,7.73,-26.49,-27.83,0,*71
1497337483.34,11779,18.75,73696.8,7.77,-27.39,-28.75,0,*74
1497337484.57,11780,18.75,73698.0,7.79,-26.65,-27.99,0,*79
1497337485.82,11781,18.75,73696.5,7.79,-25.71,-26.55,0,*7F
1497337487.09,11782,18.75,73696.5,7.83,-25.03,-26.29,0,*77
1497337488.33,11783,18.75,73698.0,7.85,-25.71,-26.87,0,*71
1497337489.54,11784,18.75,73696.5,7.93,-27.29,-28.53,0,*79
1497337490.76,11785,18.75,73702.0,7.93,-27.03,-28.47,0,*75
1497337492.0,11786,18.75,73706.5,7.93,-28.79,-30.23,0,*7F
1497337493.23,11787,18.75,73702.8,7.89,-29.01,-30.45,0,*7B
1497337494.46,11788,18.75,73710.3,7.89,-27.39,-28.69,0,*76
1497337495.68,11789,18.75,73706.0,7.89,-26.55,-27.93,0,*76
1497337496.94,11790,18.75,73702.3,7.93,-26.33,-27.83,0,*74
1497337498.16,11791,18.75,73704.5,7.95,-30.45,-32.01,0,*7B
1497337499.42,11792,18.75,73698.3,7.89,-32.07,-33.73,0,*75
1497337500.65,11793,18.75,73692.0,7.85,-32.97,-34.77,0,*72
1497337501.87,11794,18.75,73690.0,7.81,-33.21,-35.07,0,*7B
1497337503.14,11795,18.75,73694.8,7.81,-29.39,-31.11,0,*7B
1497337504.39,11796,18.75,73698.3,7.79,-31.57,-33.27,0,*79
1497337505.67,11797,18.75,73698.5,7.77,-30.73,-32.29,0,*7E
1497337506.92,11798,18.75,73698.3,7.73,-31.23,-32.69,0,*75
1497337508.17,11799,18.75,73678.0,7.73,-32.51,-34.53,0,*7D
1497337509.42,11800,18.75,73682.3,7.67,-33.77,-35.53,0,*73
1497337510.67,11801,18.75,73690.8,7.63,-32.85,-34.65,0,*7E
1497337511.95,11802,18.75,73700.0,7.61,-29.01,-30.51,0,*7A
1497337513.23,11803,18.75,73700.3,7.61,-27.99,-29.51,0,*7C
1497337514.48,11804,18.75,73700.8,7.61,-28.09,-29.45,0,*78
1497337515.71,11805,18.75,73696.0,7.65,-26.39,-27.77,0,*7F
1497337516.93,11806,18.75,73700.0,7.65,-25.87,-27.07,0,*7D
1497337518.18,11807,18.75,73700.5,7.71,-25.75,-26.93,0,*78
1497337519.4,11808,18.75,73694.0,7.75,-24.97,-26.29,0,*7F
1497337520.6,11809,18.75,73692.5,7.75,-25.39,-26.61,0,*77
1497337521.84,11810,18.75,73694.0,7.79,-24.67,-25.81,0,*74
1497337523.1,11811,18.75,73680.0,7.83,-25.13,-26.33,0,*78
1497337524.32,11812,18.75,73688.8,7.87,-24.97,-26.23,0,*73
1497337525.56,11813,18.75,73686.5,7.87,-24.77,-26.07,0,*7A
1497337526.8,11814,18.75,73684.8,7.95,-24.31,-25.61,0,*7F
1497337528.02,11815,18.75,73692.3,7.97,-24.47,-25.65,0,*79
1497337529.22,11816,18.75,73700.0,8.01,-25.13,-26.45,0,*7B
1497337530.41,11817,18.75,73690.5,8.01,-27.51,-28.97,0,*7F
1497337531.67,11818,18.75,73690.0,8.01,-26.77,-28.25,0,*7C
1497337532.95,11819,18.75,73692.5,8.03,-25.81,-27.19,0,*75
1497337534.17,11820,18.75,73694.0,8.03,-25.35,-26.61,0,*7E
1497337535.43,11821,18.75,73700.0,8.07,-24.51,-25.75,0,*7E
1497337536.67,11822,18.75,73704.0,8.09,-25.45,-26.93,0,*7C
1497337537.92,11823,18.75,73712.3,8.11,-25.03,-26.49,0,*71
1497337539.15,11824,18.75,73712.0,8.15,-25.71,-27.03,0,*78
1497337540.38,11825,18.75,73720.3,8.17,-25.13,-26.39,0,*77
1497337541.6,11826,18.75,73720.3,8.19,-25.65,-26.81,0,*78
1497337542.86,11827,18.75,73716.3,8.21,-25.71,-27.03,0,*7C
1497337544.09,11828,18.75,73710.8,8.23,-24.87,-26.03,0,*78
1497337545.3,11829,18.75,73710.3,8.23,-25.87,-27.19,0,*72
1497337546.55,11830,18.75,73716.3,8.27,-25.29,-26.77,0,*73
1497337547.74,11831,18.75,73724.8,8.27,-25.13,-26.45,0,*7A
1497337549.02,11832,18.75,73724.5,8.29,-24.67,-25.81,0,*7E
1497337550.24,11833,18.75,73728.8,8.31,-25.03,-26.23,0,*7E
1497337551.44,11834,18.75,73732.8,8.31,-25.13,-26.39,0,*73
1497337552.68,11835,18.75,73732.8,8.33,-25.39,-26.77,0,*72
1497337553.94,11836,18.75,73742.8,8.35,-26.33,-27.83,0,*74
1497337555.14,11837,18.75,73738.8,8.35,-27.03,-28.53,0,*75
1497337556.36,11838,18.75,73726.8,8.35,-26.87,-28.43,0,*76
1497337557.55,11839,18.75,73728.5,8.35,-25.91,-27.07,0,*7C
1497337558.78,11840,18.75,73742.3,8.39,-26.65,-27.99,0,*71
1497337559.97,11841,18.75,73744.0,8.39,-30.33,-32.01,0,*71
1497337561.2,11842,18.75,73740.5,8.33,-28.37,-29.83,0,*75
1497337562.4,11843,18.75,73736.5,8.35,-27.67,-29.23,0,*72
1497337563.63,11844,18.75,73734.0,8.29,-29.67,-31.29,0,*75
1497337564.9,11845,18.75,73722.0,8.29,-30.51,-32.29,0,*7A
1497337566.13,11846,18.75,73724.3,8.27,-30.05,-31.73,0,*7A
1497337567.36,11847,18.75,73718.8,8.25,-31.17,-33.15,0,*79
1497337568.6,11848,18.75,73698.3,8.21,-31.05,-32.63,0,*71
1497337569.85,11849,18.75,73714.8,8.19,-29.13,-30.51,0,*76
1497337571.1,11850,18.75,73714.3,8.19,-30.01,-31.95,0,*7C
1497337572.35,11851,18.75,73702.8,8.15,-31.95,-33.77,0,*73
1497337573.62,11852,18.75,73710.5,8.09,-29.39,-30.89,0,*70
1497337574.84,11853,18.75,73720.8,8.09,-26.07,-27.39,0,*7E
1497337576.13,11854,18.75,73716.3,8.11,-27.61,-29.51,0,*71
1497337577.38,11855,18.75,73718.3,8.11,-28.25,-29.83,0,*70
1497337578.6,11856,18.75,73722.5,8.15,-28.31,-29.73,0,*7D
1497337579.79,11857,18.75,73722.8,8.15,-28.69,-30.11,0,*7D
1497337581.04,11858,18.75,73720.3,8.11,-29.73,-31.33,0,*7D
1497337582.29,11859,18.75,73726.8,8.11,-29.79,-31.51,0,*72
1497337583.52,11860,18.75,73728.3,8.09,-29.83,-31.51,0,*74
1497337584.74,11861,18.75,73722.8,8.07,-33.03,-34.89,0,*78
1497337585.96,11862,18.75,73726.8,8.03,-32.23,-33.95,0,*76
1497337587.21,11863,18.75,73728.3,7.99,-29.79,-31.57,0,*72
1497337588.48,11864,18.81,73710.3,7.99,-30.89,-32.63,0,*76
1497337589.76,11865,18.75,73708.3,7.99,-31.61,-33.43,0,*73
1497337590.98,11866,18.75,73700.3,7.95,-32.13,-33.95,0,*71
1497337592.24,11867,18.75,73698.3,7.95,-31.51,-33.37,0,*7D
1497337593.47,11868,18.75,73702.5,7.89,-31.85,-33.55,0,*72
1497337594.75,11869,18.75,73706.0,7.87,-31.91,-33.73,0,*7C
1497337596.01,11870,18.75,73702.0,7.85,-31.61,-33.31,0,*7F
1497337597.24,11871,18.75,73702.0,7.81,-30.73,-32.51,0,*7F
1497337598.45,11872,18.75,73696.5,7.81,-30.27,-32.01,0,*78
1497337599.66,11873,18.75,73696.8,7.81,-29.57,-31.29,0,*7F
1497337600.9,11874,18.75,73688.0,7.81,-29.35,-31.05,0,*72
1497337602.12,11875,18.75,73692.0,7.81,-30.39,-32.13,0,*73
1497337603.34,11876,18.75,73700.0,7.81,-30.05,-31.79,0,*70
1497337604.57,11877,18.75,73706.0,7.79,-29.17,-30.67,0,*73
1497337605.79,11878,18.75,73708.5,7.79,-30.95,-32.57,0,*7F
1497337607.02,11879,18.81,73720.0,7.77,-31.45,-33.15,0,*7B
1497337608.27,11880,18.75,73718.0,7.77,-30.27,-31.91,0,*76
1497337609.5,11881,18.81,73724.3,7.77,-28.15,-29.45,0,*7F
1497337610.74,11882,18.75,73720.0,7.77,-27.71,-29.13,0,*72
1497337611.97,11883,18.75,73716.3,7.77,-26.23,-27.71,0,*7F
1497337613.2,11884,18.75,73712.3,7.81,-26.33,-27.67,0,*77
1497337614.45,11885,18.81,73716.8,7.83,-25.87,-27.19,0,*71
1497337615.74,11886,18.75,73714.0,7.87,-25.71,-26.93,0,*7C
1497337616.94,11887,18.75,73706.3,7.89,-25.35,-26.61,0,*7E
1497337618.19,11888,18.75,73714.3,7.95,-25.13,-26.33,0,*7F
1497337619.42,11889,18.75,73710.8,7.97,-25.29,-26.61,0,*72
1497337620.65,11890,18.75,73718.5,8.01,-26.03,-27.39,0,*7D
1497337621.91,11891,18.75,73728.0,8.01,-25.75,-27.35,0,*72
1497337623.17,11892,18.75,73740.0,8.03,-27.29,-28.63,0,*74
1497337624.41,11893,18.75,73740.3,8.05,-27.99,-29.39,0,*76
1497337625.64,11894,18.75,73736.0,8.05,-29.07,-30.73,0,*7E
1497337626.9,11895,18.75,73736.8,8.03,-29.07,-30.73,0,*79
1497337628.17,11896,18.75,73730.8,8.03,-27.83,-29.39,0,*7E
1497337629.43,11897,18.75,73722.8,8.03,-27.89,-29.35,0,*79
1497337630.65,11898,18.75,73722.0,8.03,-27.67,-29.07,0,*77
1497337631.93,11899,18.75,73716.0,8.03,-27.45,-28.91,0,*78
1497337633.18,11900,18.75,73720.3,8.03,-27.99,-29.57,0,*73
1497337634.44,11901,18.75,73716.0,8.03,-28.63,-30.23,0,*73
1497337635.68,11902,18.75,73718.3,8.03,-28.47,-29.95,0,*73
1497337636.96,11903,18.75,73718.0,8.03,-28.79,-30.39,0,*71
1497337638.19,11904,18.75,73718.3,8.01,-29.13,-30.67,0,*72
1497337639.44,11905,18.75,73714.3,7.99,-28.97,-30.51,0,*75
1497337640.67,11906,18.75,73710.5,8.01,-28.25,-29.79,0,*73
1497337641.92,11907,18.75,73704.0,7.99,-28.97,-30.39,0,*79
1497337643.17,11908,18.75,73704.5,7.99,-29.29,-30.83,0,*73
1497337644.44,11909,18.75,73702.0,7.99,-28.47,-30.05,0,*75
1497337645.72,11910,18.75,73710.0,7.99,-29.01,-30.39,0,*71
1497337646.97,11911,18.75,73708.0,7.99,-28.75,-30.23,0,*79
1497337648.19,11912,18.75,73708.5,7.97,-27.99,-29.45,0,*71
1497337649.45,11913,18.75,73708.8,7.99,-28.91,-30.33,0,*70
1497337650.73,11914,18.75,73714.0,7.99,-28.75,-30.17,0,*7B
1497337651.95,11915,18.75,73710.3,7.99,-28.31,-29.79,0,*7A
1497337653.2,11916,18.75,73710.8,7.99,-27.71,-29.17,0,*7A
1497337654.47,11917,18.75,73714.3,7.99,-27.45,-28.91,0,*73
1497337655.67,11918,18.75,73712.3,8.01,-27.93,-29.45,0,*71
1497337656.89,11919,18.75,73716.8,7.99,-28.31,-29.79,0,*76
1497337658.09,11920,18.75,73718.0,8.01,-28.37,-29.79,0,*74
1497337659.33,11921,18.75,73716.8,8.01,-29.23,-30.61,0,*70
1497337660.53,11922,18.75,73712.5,8.01,-31.01,-32.51,0,*7B
1497337661.81,11923,18.75,73716.0,7.99,-28.63,-30.17,0,*78
1497337663.07,11924,18.75,73720.3,7.99,-26.77,-28.15,0,*7F
1497337664.29,11925,18.81,73716.8,7.99,-28.15,-29.45,0,*70
1497337665.56,11926,18.75,73714.0,7.99,-29.35,-30.83,0,*72
1497337666.81,11927,18.75,73714.8,7.99,-28.79,-30.23,0,*70
1497337668.09,11928,18.75,73714.3,7.99,-28.09,-29.51,0,*75
1497337669.35,11929,18.81,73716.8,7.99,-26.97,-28.31,0,*7A
1497337670.57,11930,18.75,73718.3,8.01,-26.55,-27.93,0,*75
1497337671.77,11931,18.75,73720.3,8.05,-25.87,-27.29,0,*7D
1497337673.03,11932,18.75,73720.8,8.05,-26.97,-28.21,0,*7B
1497337674.28,11933,18.75,73720.0,8.05,-27.35,-28.63,0,*75
1497337675.52,11934,18.75,73724.5,8.05,-26.17,-27.45,0,*78
1497337676.74,11935,18.75,73722.5,8.09,-26.71,-27.93,0,*7E
1497337677.97,11936,18.75,73722.5,8.09,-29.79,-31.39,0,*7D
1497337679.2,11937,18.75,73720.3,8.09,-29.29,-30.83,0,*79
1497337680.48,11938,18.75,73718.5,8.07,-27.39,-28.59,0,*79
1497337681.72,11939,18.75,73718.5,8.07,-27.07,-28.47,0,*7A
1497337682.95,11940,18.81,73714.8,8.09,-28.21,-29.57,0,*71
1497337684.21,11941,18.75,73708.5,8.09,-27.61,-28.91,0,*70
1497337685.49,11942,18.75,73708.0,8.11,-26.17,-27.39,0,*77
1497337686.74,11943,18.75,73714.3,8.15,-25.71,-27.19,0,*73
1497337687.97,11944,18.81,73718.0,8.17,-25.13,-26.39,0,*71
1497337689.18,11945,18.75,73716.8,8.19,-26.39,-27.67,0,*7F
1497337690.42,11946,18.75,73716.3,8.19,-25.45,-26.77,0,*74
1497337691.65,11947,18.81,73728.3,8.23,-26.03,-27.23,0,*7D
1497337692.86,11948,18.75,73724.3,8.25,-25.23,-26.49,0,*78
1497337694.06,11949,18.81,73732.0,8.27,-24.97,-26.23,0,*79
1497337695.27,11950,18.75,73740.3,8.27,-25.35,-26.77,0,*79
1497337696.52,11951,18.75,73740.8,8.31,-28.09,-29.51,0,*76
1497337697.8,11952,18.75,73728.3,8.29,-28.25,-29.73,0,*72
1497337699.05,11953,18.81,73716.0,8.29,-27.83,-29.45,0,*75
1497337700.27,11954,18.81,73718.3,8.31,-29.07,-30.51,0,*74
1497337701.52,11955,18.81,73720.3,8.25,-29.61,-31.11,0,*75
1497337702.79,11956,18.75,73718.3,8.25,-29.35,-30.83,0,*7D
1497337704.06,11957,18.81,73704.3,8.25,-28.75,-30.39,0,*78